[[{"header":{"parameterUnit":"m.s-1","parameterCategory":1,"la1":30.2991,"la2":30.254,"lo1":-89.0895,"lo2":-89.0444,"dy":0.0017,"dx":0.0017,"nx":28,"ny":28,"refTime":"2024-08-10T15:00:00:Z","depth":0,"parameterNumber":2,"parameterNumberName":"U-component_of_WINDS"},"data":[0,0,0,0,0,0,0,0,0,0,0,0,0,0,0,0,0,0,0,0,0,0,0,0,0,0,0,0,0,0,0,0,0,0,0,0,0,0,0,0,0,0,0,0,0,0,0,0,0,0,0,0,0,0,0,0,0,0,3.3375,3.3376,0,3.343,3.3431,3.3431,3.3319,3.3315,3.3311,3.3308,3.3368,3.3373,3.3378,0,0,0,0,0,0,0,0,0,0,0,0,0,3.3176,3.318,3.3375,3.3376,3.3377,3.343,3.3431,3.3432,3.3319,3.3315,3.331,3.3306,3.3366,3.3372,3.3378,0,0,0,0,0,0,0,0,0,0,0,0,0,3.325,3.3182,3.3375,3.3327,3.3323,3.343,3.3431,3.3432,3.332,3.3315,3.3309,3.3304,3.3364,3.3372,3.3379,3.3536,0,0,3.3402,3.3405,0,0,0,0,0,0,0,0,3.3246,3.3258,3.3333,3.3331,3.3327,3.3362,3.3382,3.3467,3.3322,3.3322,3.3308,3.3301,3.3371,3.3377,3.34,3.3539,3.3542,3.3403,3.3407,3.3411,3.3413,0,0,0,0,0,0,0,3.3241,3.3255,3.3397,3.3335,3.3331,3.3303,3.3308,3.3398,3.3377,3.3321,3.3313,3.3321,3.3368,3.3393,3.34,3.3543,3.3403,3.3409,3.3414,3.3417,3.3811,3.3817,0,0,0,0,0,0,3.3242,3.3251,3.3395,3.3399,3.3272,3.3312,3.3316,3.3356,3.3375,3.3373,3.3325,3.3315,3.3383,3.3392,3.3402,3.3585,3.3411,3.3418,3.3422,3.3805,3.3813,3.3819,0,0,0,0,0,0,3.3238,3.3256,3.3393,3.3323,3.3338,3.3321,3.3366,3.336,3.3385,3.3378,3.3374,3.3355,3.3379,3.3391,3.3503,3.3586,3.3421,3.3428,3.3798,3.3808,3.3816,3.3955,0,0,0,0,0,0,3.3233,3.3255,3.3314,3.3325,3.3342,3.3493,3.3371,3.3365,3.3398,3.3385,3.3405,3.3403,3.3375,3.3492,3.351,3.3593,3.3434,3.3791,3.3803,3.3813,3.3943,3.3967,3.3988,0,0,0,0,0,3.3226,3.3352,3.3318,3.3336,3.3416,3.3498,3.3508,3.3472,3.3405,3.3464,3.346,3.3402,3.3574,3.3505,3.3524,3.3611,3.3785,3.3799,3.3812,3.3932,3.3963,3.3988,0,0,0,0,0,0,3.3354,3.3353,3.3314,3.3448,3.3474,3.3479,3.3552,3.3506,3.3552,3.3538,3.3493,3.3499,3.3619,3.3626,3.3548,3.3763,3.3669,3.3687,3.3753,3.3782,3.3804,3.38,3.344,0,0,0,0,0,3.3397,3.3463,3.3459,3.3577,3.3592,3.357,3.3605,3.3575,3.36,3.3611,3.3614,3.3642,3.3702,3.3743,3.3798,3.3944,3.3946,3.4013,3.4036,3.4054,3.407,3.4146,3.4175,3.3863,3.3863,3.3863,0,0,3.3488,3.3496,3.354,3.3603,3.3619,3.3689,3.358,3.3659,3.371,3.3623,3.3727,3.3732,3.3759,3.3888,3.3945,3.3898,3.4157,3.4071,3.4086,3.4092,3.4163,3.4192,3.4219,3.3872,3.387,3.3869,0,0,3.3688,3.3702,3.38,3.3818,3.3843,3.3828,3.3852,3.3864,3.3862,3.3966,3.3902,3.3963,3.4067,3.4089,3.4114,3.4321,3.427,3.4341,3.446,3.4535,3.4559,3.4581,3.4653,3.468,3.4357,3.4357,3.4357,0,3.3798,3.3899,3.3857,3.3939,3.3968,3.3892,3.3991,3.4011,3.4054,3.4076,3.4022,3.415,3.4164,3.4296,3.4346,3.437,3.4395,3.4338,3.4559,3.458,3.4599,3.4668,3.4695,3.4365,3.4365,3.4364,3.4363,0,3.4032,3.4103,3.418,3.4221,3.4259,3.435,3.4322,3.4366,3.4333,3.4323,3.4429,3.4443,3.4498,3.4527,3.4497,3.4655,3.4624,3.4566,3.447,3.4638,3.4702,3.4728,3.4377,3.4374,3.4372,3.437,0,0,3.4315,3.433,3.4359,3.4375,3.4397,3.4451,3.4539,3.4591,3.4628,3.4661,3.4732,3.4822,3.4767,3.4795,3.4766,3.4832,3.4993,3.4765,3.4765,3.4805,3.5166,3.5209,3.524,3.496,3.4964,3.4968,3.5163,0,3.4511,3.4659,3.4623,3.477,3.4834,3.4762,3.4837,3.4859,3.4853,3.4907,3.49,3.4963,3.4887,3.4903,3.4965,3.4961,3.5065,3.4946,3.5025,3.5029,3.5019,3.5274,3.532,3.5503,3.5188,3.5192,3.5195,0,3.4761,3.48,3.4952,3.4962,3.4987,3.5056,3.51,3.5153,3.5176,3.5167,3.5198,3.5155,3.5242,3.5146,3.5264,3.5184,3.5214,3.5217,3.5223,3.5228,3.5121,3.5284,3.5561,3.5588,3.5234,3.5231,3.5229,0,3.4949,3.504,3.5142,3.5159,3.5174,3.5223,3.5232,3.5249,3.5282,3.5322,3.5342,3.5392,3.5419,3.5459,3.5431,3.5365,3.5554,3.5456,3.5548,3.5549,3.559,3.5588,3.5874,3.5613,3.5612,3.5612,3.5611,0,3.5171,3.5267,3.5227,3.529,3.5395,3.5353,3.5459,3.5459,3.5475,3.5537,3.5478,3.5538,3.5498,3.5555,3.5534,3.5634,3.5648,3.5642,3.5635,3.5647,3.5647,3.5665,3.5651,3.5619,3.5617,3.5616,3.5615,0,3.5399,3.5376,3.5482,3.5486,3.5489,3.5567,3.557,3.5629,3.5617,3.5696,3.5712,3.5695,3.5758,3.5735,3.5803,3.5789,3.5916,3.5894,3.5908,3.5901,3.5994,3.5985,3.6301,3.634,3.6055,3.6057,3.606,0,3.5542,3.5613,3.5624,3.566,3.5672,3.5732,3.5765,3.5727,3.5764,3.5795,3.585,3.5908,3.5951,3.6056,3.605,3.6102,3.6079,3.6186,3.6087,3.6095,3.6079,3.6074,3.608,3.6206,3.6209,3.6212,3.6214,0,3.5797,3.5781,3.583,3.5875,3.5916,3.595,3.5979,3.6012,3.5976,3.602,3.6083,3.6117,3.6185,3.6243,3.6289,3.6298,3.6251,3.6246,3.6269,3.6281,3.6285,3.6282,3.596,3.6238,3.6236,3.6234,3.6233,3.6232,3.5985,3.6044,3.6061,3.6117,3.6134,3.6162,3.6217,3.6211,3.6262,3.6314,3.6289,3.6362,3.6382,3.6438,3.6454,3.6511,3.6469,3.6504,3.6513,3.6521,3.6532,3.6277,3.6519,3.6519,3.6518,3.6517,3.6517,0,3.6236,3.6242,3.6294,3.6335,3.6379,3.6329,3.6358,3.6398,3.6463,3.6485,3.6529,3.6601,3.6656,3.6654,3.6706,3.6752,3.6731,3.6766,3.6762,3.6764,3.6568,3.6541,3.6782,3.6782,3.6782,3.6782,3.6782,3.6782,3.6371,3.6468,3.6455,3.656,3.6566,3.6635,3.6656,3.6681,3.6698,3.6781,3.6826,3.6823,3.6836,3.6888,3.6936,3.6934,3.6955,3.6999,3.6989,3.6805,3.6779,3.6753,3.6728,3.7004,3.7005,3.7181,3.7182,3.7184]},{"header":{"parameterUnit":"m.s-1","parameterCategory":1,"la1":30.2991,"la2":30.254,"lo1":-89.0895,"lo2":-89.0444,"dy":0.0017,"dx":0.0017,"nx":28,"ny":28,"refTime":"2024-08-10T15:00:00:Z","depth":0,"parameterNumber":3,"parameterNumberName":"V-component_of_WINDS"},"data":[0,0,0,0,0,0,0,0,0,0,0,0,0,0,0,0,0,0,0,0,0,0,0,0,0,0,0,0,0,0,0,0,0,0,0,0,0,0,0,0,0,0,0,0,0,0,0,0,0,0,0,0,0,0,0,0,0,0,2.0939,2.0939,0,2.0991,2.0992,2.0992,2.0972,2.0971,2.097,2.0969,2.1019,2.1021,2.1024,0,0,0,0,0,0,0,0,0,0,0,0,0,2.0818,2.082,2.0939,2.0939,2.094,2.0991,2.0992,2.0993,2.0972,2.0971,2.0969,2.0968,2.1018,2.1021,2.1024,0,0,0,0,0,0,0,0,0,0,0,0,0,2.087,2.0821,2.0939,2.0936,2.0937,2.0991,2.0992,2.0993,2.0973,2.0971,2.0969,2.0967,2.1017,2.1021,2.1024,2.1083,0,0,2.1036,2.1037,0,0,0,0,0,0,0,0,2.0867,2.0875,2.0936,2.0937,2.0937,2.0973,2.0968,2.1023,2.0973,2.0959,2.0969,2.0966,2.1005,2.101,2.1023,2.1086,2.1088,2.1036,2.1038,2.104,2.1041,0,0,0,0,0,0,0,2.0864,2.0872,2.0959,2.0937,2.0937,2.0931,2.0937,2.0978,2.0991,2.096,2.0959,2.0965,2.1005,2.102,2.1024,2.1088,2.1036,2.1039,2.1041,2.1043,2.1201,2.1203,0,0,0,0,0,0,2.086,2.0869,2.0958,2.0961,2.0897,2.0935,2.0941,2.0963,2.0991,2.0993,2.0967,2.0964,2.1014,2.102,2.1026,2.1096,2.104,2.1043,2.1045,2.1199,2.1201,2.1204,0,0,0,0,0,0,2.0858,2.0868,2.0956,2.0915,2.0926,2.0939,2.0964,2.0965,2.098,2.0996,2.0998,2.098,2.1013,2.1021,2.1069,2.1098,2.1045,2.1048,2.1197,2.12,2.1203,2.1237,0,0,0,0,0,0,2.0854,2.0868,2.0891,2.0916,2.0928,2.0999,2.0966,2.0968,2.0987,2.0984,2.1009,2.1011,2.1012,2.1064,2.1073,2.1102,2.1051,2.1194,2.1198,2.1202,2.1234,2.1241,2.1248,0,0,0,0,0,2.085,2.0898,2.0892,2.0903,2.0957,2.1001,2.1008,2.1009,2.099,2.1012,2.1023,2.101,2.1093,2.1069,2.1079,2.1109,2.1192,2.1197,2.1201,2.1231,2.124,2.1247,0,0,0,0,0,0,2.0875,2.0901,2.0895,2.0953,2.0975,2.0997,2.1026,2.1019,2.1046,2.1042,2.1042,2.1048,2.1098,2.1108,2.1081,2.1167,2.114,2.1146,2.1158,2.1167,2.1174,2.117,2.1054,0,0,0,0,0,2.0887,2.0922,2.0942,2.0991,2.1003,2.1013,2.1032,2.1031,2.1054,2.1062,2.1076,2.1097,2.1128,2.1148,2.1178,2.1236,2.124,2.1261,2.1268,2.1274,2.1279,2.131,2.1319,2.1218,2.1218,2.1218,0,0,2.0913,2.0931,2.0953,2.0996,2.1013,2.1048,2.1021,2.1058,2.1083,2.1068,2.1115,2.1125,2.1149,2.1202,2.1226,2.1213,2.1308,2.128,2.1284,2.1286,2.1315,2.1325,2.1333,2.1221,2.1221,2.122,0,0,2.0976,2.0995,2.1037,2.1055,2.1082,2.1088,2.1099,2.1123,2.1129,2.1177,2.1166,2.1195,2.1248,2.1266,2.1281,2.1352,2.1341,2.1362,2.1397,2.1427,2.1435,2.1442,2.1466,2.1475,2.1367,2.1367,2.1368,0,2.1004,2.1057,2.1059,2.1098,2.1117,2.1106,2.1148,2.1165,2.12,2.1212,2.1197,2.1264,2.1279,2.1336,2.1353,2.1367,2.1378,2.1358,2.1434,2.1441,2.1448,2.1471,2.148,2.137,2.1369,2.1369,2.1369,0,2.1089,2.1126,2.1156,2.1191,2.1214,2.1254,2.1261,2.1284,2.1282,2.1289,2.1337,2.1355,2.1388,2.1401,2.1399,2.1458,2.1449,2.1434,2.1406,2.1459,2.1481,2.149,2.1373,2.1372,2.1371,2.1371,0,0,2.1169,2.1205,2.1216,2.1232,2.1261,2.1289,2.1328,2.1361,2.138,2.1404,2.1436,2.1482,2.1469,2.1487,2.1486,2.1512,2.1566,2.1494,2.1495,2.1506,2.1631,2.1641,2.1652,2.156,2.1562,2.1563,2.1629,0,2.1234,2.1304,2.1308,2.1371,2.1404,2.1395,2.1429,2.145,2.1458,2.1487,2.1495,2.1528,2.1508,2.1519,2.1545,2.1554,2.1591,2.155,2.1588,2.159,2.1582,2.1663,2.1674,2.1735,2.1637,2.1639,2.164,0,2.1319,2.1347,2.1414,2.1438,2.1452,2.1483,2.1514,2.1542,2.1565,2.1569,2.159,2.1585,2.1624,2.1596,2.1649,2.1621,2.1637,2.1644,2.1647,2.1649,2.1617,2.1667,2.1755,2.1764,2.1653,2.1652,2.1651,0,2.1369,2.1424,2.1471,2.1484,2.1514,2.1536,2.1549,2.1571,2.1591,2.1617,2.1629,2.166,2.1676,2.1699,2.1703,2.1682,2.1756,2.1728,2.1759,2.1759,2.1774,2.1773,2.1865,2.1787,2.1786,2.1786,2.1786,0,2.144,2.1481,2.1494,2.1522,2.1568,2.1571,2.1616,2.1627,2.1647,2.1677,2.167,2.1698,2.1702,2.1731,2.1734,2.1777,2.1785,2.1788,2.1788,2.1788,2.1788,2.1798,2.1793,2.1789,2.1788,2.1788,2.1787,0,2.1503,2.1513,2.1564,2.1588,2.1596,2.1628,2.1648,2.1675,2.1684,2.1722,2.1731,2.1743,2.1777,2.1783,2.1822,2.1825,2.1876,2.1872,2.1868,2.1867,2.1898,2.1895,2.1999,2.2012,2.1926,2.1927,2.1928,0,2.1548,2.1579,2.1608,2.1628,2.1643,2.1675,2.1696,2.17,2.1722,2.1751,2.1774,2.1807,2.1834,2.1888,2.19,2.1929,2.1926,2.196,2.193,2.1929,2.1925,2.1923,2.1925,2.1965,2.1966,2.1967,2.1968,0,2.1625,2.1629,2.1659,2.1691,2.1716,2.1741,2.1765,2.1782,2.1789,2.1814,2.1849,2.1869,2.191,2.1943,2.1973,2.1985,2.1977,2.1978,2.1986,2.1986,2.1982,2.1983,2.1883,2.1975,2.1974,2.1974,2.1973,2.1973,2.1679,2.1706,2.1731,2.1765,2.1784,2.1806,2.1833,2.1845,2.1875,2.1909,2.191,2.1948,2.197,2.201,2.2025,2.2053,2.2042,2.2055,2.2058,2.2061,2.2063,2.1979,2.2059,2.2059,2.2059,2.2058,2.2058,0,2.1755,2.1771,2.1802,2.1836,2.1863,2.1855,2.1882,2.1904,2.1938,2.196,2.1987,2.2027,2.2058,2.2073,2.2104,2.2125,2.2122,2.2132,2.213,2.2133,2.2072,2.2061,2.2134,2.2134,2.2134,2.2134,2.2134,2.2134,2.1798,2.1843,2.185,2.1905,2.192,2.1958,2.1974,2.1994,2.2012,2.2057,2.2084,2.2094,2.2113,2.2146,2.2174,2.2178,2.2189,2.2201,2.2203,2.2145,2.2137,2.213,2.212,2.2204,2.2204,2.2261,2.2262,2.2262]}]]